Wind_Speed
5 12 12 12 10 12 14 19 30 31 23 36 41 51 47 40 32 25 26 25 24 24 25 24 23 20 17 17 15 15 10 8 8 14 13 6 2 4 16 16 13 19 22 19 20 17 17 17 18
14 9 8 9 12 10 15 21 23 22 25 36 43 47 52 41 35 30 26 28 25 22 23 25 23 23 22 23 24 23 20 15 12 17 17 8 9 9 4 10 13 13 14 18 18 16 16 16 14
16 11 12 12 4 2 15 19 21 22 24 29 41 49 52 42 34 32 28 30 26 26 25 25 27 28 29 27 27 28 25 22 18 21 24 13 10 10 11 7 3 12 12 10 13 13 13 13 16
13 5 11 13 10 8 3 12 21 25 27 25 36 45 49 43 33 32 32 32 32 32 30 28 28 29 31 29 27 28 28 25 20 22 26 18 13 14 16 15 11 6 12 15 11 13 15 17 14
19 9 10 19 5 3 8 8 11 20 21 25 38 36 44 42 31 30 30 30 31 33 35 34 31 29 32 32 30 29 28 27 24 21 25 25 22 17 17 21 20 15 10 11 16 15 15 14 15
16 25 12 8 10 2 7 9 14 9 19 21 27 37 42 42 34 27 29 30 30 30 34 36 35 32 34 35 34 33 32 29 29 27 26 31 27 25 24 23 20 18 14 9 12 15 13 11 12
24 23 12 11 9 4 9 8 4 7 17 17 26 30 37 43 41 27 25 29 32 32 34 37 39 39 36 38 38 37 37 35 36 29 27 30 32 29 25 22 19 19 17 15 12 9 8 10 12
24 14 19 20 15 11 12 8 7 9 13 19 22 26 37 36 42 32 27 24 30 32 33 36 38 40 42 39 38 38 39 40 38 32 25 28 31 33 34 30 22 18 20 18 16 10 5 5 9
29 24 22 13 21 22 13 11 4 13 13 16 18 22 31 38 36 33 26 23 26 29 32 35 36 38 40 41 39 39 37 38 37 33 29 25 25 28 31 31 28 25 20 20 14 10 8 3 5
30 27 23 27 25 18 17 12 7 8 9 7 16 20 27 32 32 36 29 26 24 24 29 31 34 35 37 38 40 39 39 39 38 34 29 31 28 27 32 31 28 22 20 17 15 18 15 11 2
30 25 26 31 32 27 19 15 10 6 14 6 9 11 23 27 28 36 34 27 24 22 25 29 32 34 35 35 37 38 39 39 38 35 29 27 25 26 29 24 17 17 17 20 26 22 10 8 4
17 36 35 35 31 30 23 19 15 10 10 7 6 13 20 28 19 28 36 33 27 23 23 26 27 30 32 32 34 35 38 39 38 35 32 35 30 28 25 19 18 16 19 19 18 25 30 18 9
28 27 32 38 34 29 26 24 23 11 9 14 9 19 13 18 20 23 26 35 31 27 25 23 25 27 29 31 31 33 35 38 38 35 33 38 36 25 20 15 11 12 13 15 22 24 22 27 26
57 39 36 35 35 31 29 29 18 12 13 10 7 4 15 16 19 22 24 28 31 32 27 26 24 24 25 26 27 31 34 37 36 36 37 37 37 34 25 19 9 10 4 8 10 14 22 21 26
58 52 44 39 36 32 32 28 24 20 13 14 14 4 10 9 21 16 20 25 31 32 36 26 25 25 25 24 27 27 28 34 36 33 35 38 40 38 32 25 22 17 9 6 6 8 12 20 23
58 56 52 48 40 36 35 31 23 23 18 14 15 10 5 8 9 14 17 21 27 28 34 33 24 24 25 25 23 26 26 29 31 31 29 36 39 37 38 32 26 23 16 8 4 2 8 14 19
61 63 56 49 42 37 36 36 29 28 23 16 14 7 7 2 7 10 12 19 23 26 30 33 30 22 23 23 23 23 25 27 27 31 32 30 29 33 36 37 36 32 32 13 9 6 8 11 14
66 66 60 52 43 40 37 39 35 30 24 19 17 15 11 2 6 9 10 12 16 23 25 31 30 28 20 22 22 22 22 23 25 28 28 26 31 31 34 36 36 38 36 32 21 15 13 11 13
74 68 65 56 48 31 37 45 42 33 29 26 22 22 22 11 8 6 7 10 12 20 23 25 27 26 25 18 19 20 27 22 20 22 23 26 28 30 33 33 34 36 35 35 34 27 18 13 10
73 71 68 63 45 28 26 42 43 38 33 28 26 28 24 26 21 10 13 14 14 19 23 23 26 23 24 19 16 16 18 20 20 15 19 24 24 24 28 28 30 31 33 32 33 30 27 26 22
68 73 68 66 58 58 41 39 51 48 43 34 29 30 23 22 19 20 18 18 15 16 17 17 22 21 20 19 16 11 14 17 18 16 14 17 19 21 21 24 26 27 31 32 32 29 28 27 27
66 72 76 70 69 68 55 28 41 50 39 40 34 31 28 25 21 20 18 18 13 11 14 15 20 21 18 18 17 13 11 12 13 17 16 12 14 17 18 19 21 24 27 28 27 28 28 28 27
69 69 77 78 75 74 62 34 41 44 44 41 40 38 37 28 26 25 26 21 15 12 11 15 20 23 19 18 16 14 12 10 9 11 12 15 12 10 12 15 17 20 22 25 25 25 26 26 26
78 72 74 81 81 71 69 66 45 33 27 34 42 41 41 35 31 30 29 23 19 16 16 14 20 22 23 17 15 14 11 11 8 8 9 14 14 8 10 11 11 14 17 19 20 20 22 23 25
78 75 70 77 82 75 79 72 69 50 42 41 34 31 38 38 36 34 31 26 24 19 20 20 21 21 22 19 16 13 10 10 14 10 5 9 10 10 10 8 9 11 13 13 14 16 17 18 20
78 78 71 69 79 81 82 80 75 65 60 51 39 38 43 43 43 40 35 30 18 23 23 25 27 28 23 21 18 16 12 10 11 13 8 4 6 7 7 6 7 9 10 10 10 10 13 15 16
85 78 76 74 79 87 91 77 77 76 71 57 47 38 38 37 51 47 33 34 29 29 26 27 30 29 25 22 19 16 14 14 11 9 9 9 7 8 6 6 5 4 8 11 11 7 7 9 11
84 78 80 76 74 86 88 82 77 76 74 68 61 52 47 37 40 47 49 45 42 31 32 32 26 29 30 27 20 19 16 17 15 11 9 13 13 9 12 6 5 9 5 10 9 8 6 8 8
86 84 78 78 79 81 80 83 79 76 72 68 66 69 51 48 45 39 32 23 19 28 27 25 19 22 16 31 22 21 27 20 20 16 13 11 13 15 17 10 13 15 16 13 10 8 11 11 9
91 90 88 84 83 85 80 83 81 74 77 72 69 62 58 54 52 47 38 35 43 26 28 24 14 19 29 20 23 26 29 17 19 19 18 15 14 15 17 19 17 15 16 15 16 11 13 15 15
Wind_Direction
181 79 63 48 67 52 31 35 43 42 22 16 19 19 20 22 27 37 41 54 59 64 67 71 67 58 57 48 47 36 24 18 30 28 31 57 51 225 222 225 224 223 226 222 228 226 227 227 230
136 94 71 58 54 104 52 44 33 24 22 21 19 18 19 21 31 43 47 53 57 59 61 62 61 54 48 43 50 48 47 48 57 37 40 65 55 67 107 210 220 219 215 218 219 214 214 212 208
145 83 149 119 110 91 58 35 38 32 19 12 26 26 18 23 32 41 46 49 52 54 58 57 58 51 44 47 52 54 53 53 60 45 43 65 68 69 77 68 234 225 213 203 198 190 193 185 190
161 120 76 110 112 75 50 15 25 13 12 25 22 22 17 26 34 42 50 53 56 56 56 53 52 50 46 50 52 53 53 55 59 47 45 67 73 84 74 70 62 186 186 197 180 179 179 179 180
152 99 64 146 21 53 14 342 337 353 10 10 9 13 19 24 31 41 51 54 53 57 58 57 54 52 49 49 52 50 53 54 60 56 49 50 64 74 73 64 61 75 139 171 180 177 174 182 192
153 87 40 167 290 300 337 352 335 332 12 6 4 5 15 22 30 39 52 57 57 55 60 57 55 56 54 51 50 51 50 53 58 59 56 55 64 67 66 59 67 80 89 114 177 181 190 204 207
162 97 94 219 174 289 296 289 304 314 4 354 2 2 11 25 26 31 49 58 61 60 60 58 54 54 55 52 51 49 47 48 48 55 60 62 68 70 62 58 53 71 82 80 96 138 182 207 221
176 142 120 226 233 273 257 274 349 266 6 339 351 359 10 19 15 33 37 57 62 61 59 56 55 53 54 54 52 47 46 44 46 55 63 65 67 66 62 50 58 68 79 81 80 82 105 194 209
177 164 190 201 208 211 228 249 231 238 296 328 337 13 31 27 20 30 36 47 59 59 58 57 57 55 54 54 54 53 52 46 47 55 66 68 67 68 66 63 68 63 71 53 49 80 58 70 215
183 186 197 209 209 222 219 217 218 201 262 317 360 17 24 18 23 28 39 41 48 58 58 59 57 56 54 52 54 54 55 53 50 52 66 62 69 67 65 60 66 51 57 41 36 36 21 6 128
192 201 197 203 206 211 213 200 229 249 259 300 335 345 0 2 20 29 38 41 42 51 58 58 59 56 53 52 52 53 55 55 55 53 56 53 63 62 61 51 54 51 37 43 49 70 26 342 13
182 221 217 207 212 216 217 209 219 223 265 268 297 337 335 337 9 19 35 40 41 43 50 55 61 56 57 56 53 54 54 55 58 56 53 52 62 74 69 51 45 55 42 39 40 42 43 40 60
190 191 207 203 208 212 215 212 221 225 220 246 274 287 344 339 351 23 18 33 37 44 46 50 55 55 56 54 55 54 57 56 56 56 50 54 59 59 51 61 62 51 48 22 56 36 38 52 57
210 201 199 200 209 215 217 214 212 185 189 192 260 339 340 348 35 30 14 24 38 44 45 48 49 50 55 56 53 54 55 55 58 55 53 51 52 55 53 48 11 10 24 44 22 23 42 56 61
208 205 207 211 210 211 213 215 208 200 216 233 230 318 360 1 340 28 18 20 35 38 39 41 48 46 44 49 51 54 57 53 57 56 55 54 54 51 50 53 46 32 32 23 42 36 56 57 62
209 205 207 211 208 210 210 213 208 215 218 231 242 281 265 3 6 30 22 21 23 31 30 35 40 48 47 44 50 48 51 52 57 55 57 52 48 50 50 52 55 34 34 23 11 103 60 48 51
208 208 210 214 210 211 213 214 213 221 233 236 244 262 263 92 4 354 15 19 15 21 25 28 35 47 49 49 46 52 53 58 56 56 55 57 53 50 55 51 51 45 49 67 78 110 75 49 50
209 211 213 209 210 216 217 219 213 220 224 228 219 223 242 202 9 344 355 7 6 8 13 18 29 37 47 49 45 45 47 56 54 53 50 57 55 51 51 51 49 51 51 53 69 82 67 57 51
211 208 212 207 207 206 234 228 220 217 226 222 216 220 215 240 287 304 316 344 349 352 2 10 23 34 39 50 45 42 33 44 47 50 53 50 55 55 53 54 51 52 55 58 64 69 66 52 47
212 209 207 211 197 190 237 237 227 217 223 221 224 223 228 244 265 271 286 309 325 336 351 357 17 26 34 39 41 40 25 36 38 37 50 51 49 54 55 51 55 57 60 63 63 66 67 66 60
213 210 209 210 203 191 201 230 225 220 220 216 225 221 223 239 252 267 265 278 306 331 340 350 8 19 24 35 37 43 36 39 40 40 33 61 57 47 52 49 52 52 57 60 61 62 65 63 61
212 212 210 210 206 203 208 217 228 224 219 226 222 222 221 238 251 253 269 281 297 328 327 342 359 11 11 13 32 40 34 29 27 37 31 45 59 49 44 51 51 53 55 57 57 62 62 63 63
211 211 210 210 211 206 200 193 196 217 224 220 218 218 221 225 238 249 262 270 278 310 301 318 342 350 359 357 15 31 25 27 25 14 26 28 30 43 44 43 41 51 53 55 54 56 60 60 60
216 211 211 212 212 208 207 200 177 186 197 209 224 221 227 227 227 242 254 257 266 276 288 295 327 333 338 343 353 3 18 23 15 344 13 8 17 29 40 43 46 46 48 50 54 54 54 55 59
217 212 212 213 212 211 210 207 209 200 204 203 210 221 230 238 240 234 240 247 253 261 274 292 307 316 320 324 332 338 359 6 360 344 342 349 9 3 19 20 52 44 49 49 49 51 54 54 54
216 214 211 213 213 214 217 213 215 217 223 221 232 237 236 234 238 246 237 228 226 256 271 282 298 303 307 307 313 314 329 336 360 352 329 324 321 334 360 17 37 35 43 45 37 47 50 54 60
216 213 213 213 212 214 216 215 217 220 224 220 210 226 234 220 227 234 230 234 226 253 257 266 280 285 287 292 293 298 307 323 332 345 325 303 310 310 356 352 313 21 23 33 37 42 48 44 52
216 215 216 215 215 217 218 215 217 221 223 223 220 219 228 229 233 230 239 237 247 248 252 260 271 281 280 282 271 280 299 307 312 315 309 319 311 268 274 291 296 287 330 345 15 15 30 34 26
216 216 217 218 219 219 215 216 217 221 222 222 223 221 228 227 214 218 206 202 254 244 257 269 250 272 270 268 269 279 288 296 297 293 293 300 308 304 284 270 271 270 290 305 340 346 3 12 8
216 217 216 217 219 222 216 213 216 218 220 221 223 221 220 209 199 201 201 206 211 227 226 216 255 239 277 259 278 309 294 287 284 276 274 279 282 288 300 283 267 264 269 289 304 311 320 338 348
Height
11022 11023 11022 11021 11021 11022 11021 11021 11019 11017 11016 11011 11005 10997 10988 10982 10978 10973 10970 10967 10965 10962 10961 10959 10957 10956 10955 10953 10949 10946 10942 10939 10936 10933 10927 10924 10923 10921 10922 10923 10924 10925 10926 10928 10930 10933 10936 10939 10942
11023 11024 11024 11022 11021 11023 11022 11022 11020 11018 11015 11012 11007 11001 10994 10987 10982 10977 10975 10971 10969 10967 10964 10962 10961 10959 10957 10953 10949 10946 10943 10939 10937 10933 10927 10925 10924 10923 10922 10923 10923 10924 10926 10928 10931 10934 10936 10939 10942
11022 11022 11020 11023 11025 11024 11024 11024 11022 11019 11016 11015 11009 11004 11000 10992 10987 10982 10979 10975 10973 10970 10967 10964 10963 10961 10958 10955 10951 10948 10944 10940 10937 10934 10929 10926 10926 10925 10924 10923 10923 10924 10927 10929 10931 10934 10937 10941 10942
11022 11021 11025 11025 11022 11025 11025 11024 11023 11022 11021 11017 11013 11008 11003 10997 10992 10988 10982 10980 10977 10973 10970 10967 10966 10964 10961 10957 10954 10950 10945 10942 10938 10936 10933 10930 10928 10928 10928 10925 10921 10920 10925 10928 10933 10936 10936 10939 10943
11022 11021 11025 11026 11028 11027 11025 11024 11025 11026 11023 11020 11016 11012 11009 11002 10997 10992 10988 10985 10983 10979 10975 10972 10970 10967 10965 10960 10956 10952 10948 10945 10941 10939 10937 10934 10932 10931 10929 10926 10923 10922 10924 10927 10931 10935 10939 10940 10942
11024 11024 11031 11030 11027 11022 11025 11026 11026 11027 11025 11023 11020 11016 11013 11007 11002 10998 10994 10990 10987 10985 10981 10978 10975 10972 10969 10964 10960 10955 10952 10949 10946 10943 10942 10939 10936 10934 10933 10930 10927 10928 10928 10929 10931 10935 10939 10941 10942
11021 11024 11023 11029 11021 11026 11025 11028 11029 11026 11024 11023 11023 11019 11015 11012 11008 11003 10999 10996 10993 10990 10987 10983 10981 10977 10973 10968 10963 10959 10956 10952 10949 10946 10945 10943 10940 10938 10938 10936 10933 10931 10932 10935 10937 10938 10939 10940 10941
11020 11024 11028 11029 11028 11029 11028 11029 11027 11020 11022 11025 11025 11022 11020 11016 11013 11007 11004 11001 10997 10994 10992 10988 10984 10982 10977 10972 10968 10964 10961 10958 10954 10950 10947 10946 10943 10941 10939 10939 10938 10937 10935 10939 10941 10941 10941 10941 10941
11017 11021 11018 11020 11022 11025 11028 11029 11030 11022 11026 11027 11027 11024 11021 11021 11019 11014 11010 11005 11003 11000 10997 10993 10989 10986 10982 10978 10973 10970 10966 10963 10960 10956 10951 10948 10947 10944 10943 10941 10941 10942 10942 10941 10942 10942 10942 10941 10939
11017 11020 11020 11020 11024 11026 11027 11028 11029 11030 11029 11030 11032 11026 11024 11024 11024 11019 11014 11010 11007 11005 11002 10998 10994 10990 10987 10984 10979 10975 10973 10970 10966 10960 10955 10953 10951 10950 10949 10947 10945 10946 10945 10943 10941 10941 10940 10939 10937
11016 11019 11018 11019 11022 11024 11025 11026 11028 11028 11029 11031 11032 11027 11026 11028 11028 11026 11020 11016 11013 11010 11007 11003 10999 10996 10992 10988 10984 10982 10978 10975 10971 10964 10959 10957 10956 10956 10955 10950 10948 10945 10945 10946 10941 10942 10941 10938 10937
11011 11006 11012 11016 11019 11021 11024 11026 11027 11026 11028 11030 11031 11028 11028 11029 11030 11029 11026 11022 11018 11014 11010 11007 11004 11000 10998 10994 10990 10988 10985 10981 10976 10970 10964 10963 10961 10959 10959 10956 10951 10949 10950 10951 10946 10943 10939 10939 10938
10983 10990 11001 11010 11014 11017 11021 11023 11024 11027 11027 11029 11031 11031 11030 11031 11032 11030 11030 11026 11022 11018 11014 11011 11009 11006 11002 10999 10996 10993 10991 10986 10982 10978 10971 10967 10968 10965 10961 10960 10956 10953 10953 10955 10949 10946 10946 10943 10942
10982 10990 10998 11005 11009 11013 11017 11020 11024 11026 11026 11029 11030 11031 11032 11034 11032 11031 11032 11029 11028 11023 11018 11015 11013 11011 11007 11005 11002 10998 10995 10993 10991 10986 10979 10974 10972 10971 10968 10965 10960 10958 10958 10959 10952 10951 10950 10950 10948
10981 10989 10997 11000 11006 11010 11015 11019 11021 11023 11025 11027 11031 11032 11032 11034 11032 11033 11035 11033 11030 11028 11023 11019 11016 11013 11010 11007 11006 11002 11002 10999 10997 10992 10984 10980 10977 10973 10973 10970 10967 10965 10963 10959 10955 10956 10957 10956 10955
10978 10986 10990 10992 11000 11006 11011 11016 11018 11020 11024 11026 11030 11032 11033 11034 11033 11034 11035 11035 11033 11032 11027 11024 11019 11017 11015 11013 11009 11006 11003 11003 11002 11000 10994 10987 10982 10980 10979 10976 10973 10966 10964 10959 10959 10961 10962 10961 10960
10970 10974 10984 10990 11000 11004 11008 11011 11014 11018 11020 11024 11027 11030 11034 11034 11034 11034 11035 11035 11036 11035 11032 11028 11025 11021 11018 11017 11014 11011 11008 11007 11004 11003 11000 10995 10991 10987 10983 10980 10976 10975 10967 10965 10963 10966 10966 10965 10964
10957 10965 10976 10989 10997 11000 11003 11007 11011 11015 11018 11022 11025 11029 11033 11032 11033 11033 11035 11036 11037 11037 11034 11032 11028 11025 11021 11020 11018 11016 11014 11012 11008 11006 11004 11001 10997 10993 10987 10983 10982 10977 10973 10971 10968 10970 10970 10970 10969
10940 10956 10968 10979 10988 10998 11001 11004 11006 11010 11015 11020 11022 11025 11028 11030 11032 11034 11035 11036 11036 11037 11037 11035 11032 11029 11026 11022 11020 11019 11018 11016 11014 11010 11006 11004 11003 10999 10995 10991 10989 10986 10982 10979 10976 10975 10975 10974 10973
10930 10945 10959 10969 10985 11000 10983 10997 11003 11006 11010 11015 11019 11022 11026 11028 11031 11033 11033 11034 11035 11036 11036 11035 11034 11032 11030 11026 11023 11021 11020 11019 11019 11014 11011 11008 11006 11006 11002 11000 10997 10994 10991 10987 10983 10982 10981 10979 10976
10921 10934 10952 10960 10977 10981 10970 10983 10989 10995 11002 11009 11012 11017 11022 11025 11028 11030 11031 11033 11034 11035 11036 11035 11034 11033 11031 11029 11026 11024 11025 11023 11022 11020 11014 11013 11013 11012 11008 11004 11002 11000 10994 10990 10989 10988 10985 10984 10981
10911 10921 10935 10951 10958 10965 10973 10980 10981 10987 10997 11002 11007 11012 11017 11020 11023 11027 11029 11030 11032 11034 11034 11034 11034 11034 11033 11031 11029 11026 11025 11025 11024 11022 11021 11018 11016 11015 11012 11011 11009 11005 11002 10998 10997 10995 10993 10991 10989
10896 10909 10919 10929 10938 10951 10966 10974 10977 10978 10986 10992 10999 11006 11010 11014 11019 11023 11027 11028 11030 11032 11032 11033 11034 11034 11034 11032 11032 11029 11026 11026 11026 11025 11023 11024 11022 11020 11018 11015 11012 11011 11009 11005 11003 11001 11000 10998 10995
10873 10893 10906 10916 10923 10943 10953 10962 10965 10972 10979 10984 10992 10999 11005 11009 11013 11018 11023 11026 11027 11028 11030 11031 11032 11032 11033 11032 11032 11030 11028 11027 11026 11026 11024 11024 11024 11022 11019 11017 11017 11015 11013 11011 11009 11007 11005 11003 11000
10866 10883 10894 10901 10921 10931 10938 10948 10958 10962 10966 10974 10982 10989 10996 11000 11003 11009 11015 11021 11024 11025 11026 11027 11029 11030 11031 11031 11032 11031 11030 11028 11028 11025 11025 11026 11023 11022 11021 11020 11018 11016 11014 11014 11014 11012 11010 11008 11005
10852 10867 10881 10891 10906 10916 10917 10942 10949 10954 10958 10968 10975 10979 10986 10991 10996 11001 11008 11014 11019 11023 11023 11025 11026 11027 11030 11031 11029 11029 11029 11027 11026 11026 11026 11027 11025 11023 11020 11021 11020 11019 11018 11017 11017 11015 11014 11012 11010
10836 10857 10868 10871 10885 10891 10897 10927 10935 10942 10947 10959 10970 10974 10976 10981 10985 10994 11001 11007 11012 11015 11018 11020 11022 11023 11026 11028 11029 11027 11027 11028 11027 11026 11027 11026 11025 11023 11022 11023 11022 11021 11021 11019 11017 11018 11017 11016 11013
10830 10848 10852 10867 10872 10874 10897 10913 10926 10932 10939 10951 10960 10966 10969 10977 10982 10988 10993 11001 11006 11009 11012 11014 11017 11018 11018 11019 11025 11025 11025 11027 11028 11026 11025 11026 11024 11023 11022 11023 11023 11023 11022 11022 11020 11021 11019 11017 11016
10819 10829 10843 10850 10858 10859 10886 10904 10916 10921 10932 10939 10949 10957 10963 10969 10974 10981 10987 10998 11001 11004 11006 11009 11011 11012 11013 11014 11016 11020 11021 11022 11025 11025 11022 11022 11021 11020 11019 11020 11021 11022 11022 11023 11022 11021 11019 11019 11017
10804 10810 10817 10829 10836 10840 10871 10887 10902 10908 10915 10925 10935 10946 10956 10959 10963 10972 10977 10985 10991 10997 11003 11001 11005 11007 11005 11008 11013 11014 11017 11020 11021 11021 11018 11016 11017 11020 11020 11019 11019 11019 11020 11022 11021 11020 11019 11019 11018